Lid_Strength_Index
3 3 4 6 11 13 16 14 12 13 13 12 11 11 12 12 11 12 8 7 6 5 3 2 -2 -2 -2 -2 -1 -1 -1 -1 -1 -1 -1 -1 -1 -1 -1 -1 -2 -1 -1 -1 -1 -1 -2 -2 -2
3 3 5 9 14 16 16 13 14 13 11 11 11 12 12 13 10 10 9 7 6 5 3 0 -2 -2 -2 -2 -2 -2 -1 -1 -1 -1 -1 -1 -1 -1 -1 -1 -2 -2 -1 -1 -1 -2 -2 -2 -2
3 5 8 12 15 16 15 14 13 12 11 12 12 11 13 13 11 10 9 8 8 7 6 2 -2 -2 -2 -2 -2 -2 -1 -2 -2 -2 -2 -2 -1 -1 -1 -1 -2 -2 -1 -2 -2 -2 -2 -2 -2
6 7 10 14 15 15 14 13 12 11 11 11 12 14 12 11 11 10 9 9 10 9 8 4 2 1 0 -0 -1 -2 -2 -2 -1 -1 -1 -2 -2 -1 -1 -1 -2 -2 -1 -2 -2 -2 -2 -2 -1
8 11 13 15 15 14 14 12 12 12 13 13 12 14 13 11 11 11 11 11 11 10 9 8 4 3 2 2 2 1 0 -1 -2 -2 -2 -1 -1 -2 -2 -2 -1 -1 -1 -2 -2 -2 -2 -1 -1
10 11 15 16 15 14 13 12 12 13 12 12 13 14 14 12 12 12 12 12 11 11 10 9 6 5 4 4 3 3 2 1 1 0 0 -0 -1 -2 -2 -2 -1 -2 -2 -1 -2 -2 -1 -1 -1
11 13 15 16 15 14 12 12 13 13 13 13 12 15 14 14 12 12 13 13 12 12 11 11 10 8 6 6 5 4 4 3 2 3 2 1 0 -0 -1 -1 -2 -2 -2 -2 -2 -2 -1 -1 -1
11 12 14 15 15 14 12 12 12 12 13 12 12 16 16 14 12 13 13 13 13 12 12 11 11 10 10 10 7 6 6 5 4 4 4 4 3 3 0 -0 -1 -2 -2 -2 -2 -1 -1 -1 -1
10 13 15 15 14 14 12 13 12 13 14 14 14 14 13 13 13 15 15 14 14 12 12 12 12 12 11 11 10 8 7 7 6 6 6 6 7 5 3 2 2 0 -2 -2 -1 -2 -1 -1 -0
12 14 14 13 13 13 12 13 13 14 15 16 16 14 14 14 15 16 16 16 15 14 13 13 13 13 12 11 11 11 11 10 8 8 8 8 8 6 6 5 4 4 2 1 -1 -1 -1 -0 -0
13 14 12 12 12 12 13 13 13 14 15 15 16 16 15 15 16 16 16 16 16 16 14 14 14 13 14 13 12 13 12 12 10 10 9 9 8 7 8 8 7 6 6 5 3 -0 -0 -0 -0
13 12 12 11 11 12 13 12 14 14 14 13 14 15 16 16 16 16 16 16 16 16 15 15 15 14 14 14 14 14 13 12 13 12 10 10 10 9 9 9 8 8 8 7 3 2 0 0 -0
13 12 12 11 11 12 12 13 13 14 15 14 15 15 16 16 16 16 16 16 17 16 16 16 15 15 14 14 14 14 14 14 13 12 12 11 11 11 10 10 9 9 8 5 5 6 5 5 0
13 12 12 12 12 12 13 14 14 15 15 16 15 16 16 16 16 17 17 17 17 17 16 16 15 15 15 14 14 14 14 14 13 13 13 11 11 12 12 12 10 9 8 6 7 7 7 6 5
12 13 13 13 12 12 13 14 14 14 15 16 16 16 16 16 16 17 17 17 17 17 17 16 15 15 15 15 14 14 14 14 14 13 13 13 12 12 13 12 10 9 8 7 8 8 8 7 6
13 14 15 13 12 13 13 15 13 14 15 16 17 17 16 16 17 17 17 17 18 17 17 16 14 15 15 15 15 15 14 14 14 14 14 14 13 13 13 12 11 9 8 8 8 8 8 8 7
15 17 17 14 12 14 14 16 14 14 15 16 17 17 17 18 18 18 18 18 17 17 17 16 16 16 15 15 15 15 15 15 15 15 15 15 14 13 14 13 12 10 9 8 8 8 7 8 8
16 17 17 17 15 15 15 15 14 15 15 16 17 17 17 18 18 18 18 18 17 18 17 17 16 16 16 16 16 16 16 16 16 16 16 15 15 15 15 15 14 13 11 9 8 7 7 7 7
16 17 17 16 14 15 15 15 12 15 16 17 19 18 18 19 18 18 18 18 18 18 17 17 17 16 17 17 18 17 18 17 17 17 16 16 15 15 15 16 15 14 13 11 9 7 7 7 7
16 17 17 15 15 15 16 16 14 15 15 15 16 18 18 19 19 18 18 18 18 18 17 17 17 17 17 17 17 17 18 18 18 17 16 16 16 16 15 15 15 15 14 12 10 8 8 7 7
16 17 17 16 16 16 18 20 16 16 15 15 15 16 17 18 19 18 19 19 19 18 18 17 17 17 17 17 17 17 18 18 19 18 18 16 16 16 15 15 15 14 14 12 12 10 8 8 8
17 15 16 16 18 20 18 21 19 17 16 17 17 18 18 19 19 18 19 19 19 18 18 17 17 17 16 17 18 19 20 20 19 19 18 17 16 16 15 15 15 15 13 14 12 10 8 7 8
15 15 17 17 18 21 20 21 20 19 18 16 17 18 18 18 19 19 19 18 18 17 18 18 18 17 16 17 18 19 20 19 18 18 18 17 16 16 16 15 15 16 15 15 13 11 9 6 6
14 16 17 19 20 23 20 20 22 19 18 17 18 18 18 19 19 19 18 18 18 18 18 18 18 18 17 17 18 19 20 19 20 19 19 18 17 16 16 15 16 16 16 15 13 11 10 10 7
15 17 20 21 24 22 21 23 18 15 16 17 18 18 19 19 19 19 19 19 18 18 18 18 18 18 18 19 19 19 19 20 19 19 19 18 18 17 17 16 16 16 16 14 14 13 12 10 9
17 16 19 24 24 21 21 22 19 17 18 19 18 18 19 19 19 19 19 19 19 18 19 18 18 19 19 19 19 20 20 20 19 19 19 18 18 17 17 17 16 16 16 16 15 14 12 11 10
17 19 17 20 31 27 21 21 18 19 19 20 19 20 20 19 20 19 19 19 19 19 19 19 19 19 19 19 20 21 21 20 20 19 19 18 18 17 17 17 17 17 16 15 16 16 15 12 10
17 16 20 21 26 28 23 22 19 18 19 21 21 21 20 20 20 19 19 19 19 19 18 19 19 20 20 20 21 20 20 20 20 19 19 18 18 18 17 17 17 17 16 16 16 16 15 14 12
19 20 19 19 19 23 26 20 18 16 17 20 21 20 20 20 19 19 19 19 19 19 19 20 20 20 20 20 21 21 21 20 20 20 19 18 18 18 18 17 17 16 16 17 16 17 16 15 14
19 18 17 20 22 22 21 19 17 17 17 19 20 19 20 19 19 19 19 19 19 20 20 20 21 21 21 21 21 21 21 21 21 20 19 18 19 18 18 18 17 16 17 17 17 17 16 15 14